Regional Weather Roundup
Issued by NWS

Home | Current Version | Previous Version | Text Only | Print | Product List | Glossary Off
Versions: 1 2 3 4 5 6 7 8 9 10 11 12 13 14 15 16 17 18 19 20 21 22 23 24 25 26 27 28 29 30 31 32 33 34 35 36 37 38 39 40 41 42 43 44 45 46 47 48 49 50

000
ASUS43 KIND 150009
RWRIN

WEATHER ROUNDUP FOR INDIANA
NATIONAL WEATHER SERVICE INDIANAPOLIS IN
700 PM EST THU DEC 14 2017

NOTE: "FAIR" INDICATES FEW OR NO CLOUDS BELOW 12,000 FEET WITH NO
SIGNIFICANT WEATHER AND/OR OBSTRUCTIONS TO VISIBILITY.

* - STATION DOES NOT REPORT WEATHER SUCH AS PRECIPITATION OR FOG.

+ - STATION NOT QUALITY CONTROLLED BY THE NATIONAL WEATHER SERVICE.
    USE DATA WITH CAUTION...ESPECIALLY DEWPOINT AND RELATIVE
    HUMIDITY OBSERVATIONS.

INZ001>003-010>013-019-020-150100-
NORTHWEST INDIANA

CITY           SKY/WX    TMP DP  RH WIND       PRES   REMARKS
GARY /AIRPORT/ PTCLDY    25  10  54 W7        30.08R WCI  17
KNOX *+        CLOUDY    23  16  74 SE5       30.07S WCI  17
LA PORTE +     CLOUDY    19  13  76 CALM      30.07S
6HR MIN TEMP:  19; 6HR MAX TEMP:  23;

MICHIGAN CITY+ CLOUDY    23  18  80 SE5       30.07S WCI  17
MONTICELLO +   CLOUDY    25  14  62 CALM      30.07S
6HR MIN TEMP:  25; 6HR MAX TEMP:  28;

RENSSELAER +   PTCLDY    27  16  63 CALM      30.08S
VALPARAISO     CLOUDY    26  15  63 SW8       30.07R WCI  18
6HR MIN TEMP:  24; 6HR MAX TEMP:  28;


$$

LMZ046-743>745-150100-
SOUTHERN LAKE MICHIGAN

STATION/POSITION TIME  TEMP    WIND        PRES    WAVE
                       AIR SEA DIR/SP/G            HT
                 (UTC) (F)     (DEG/KT/KT) (MB)    (FT)
BURNS HARBOR     2340   27     220/  3/  4 1018.6S
MICHIGAN CITY    2340   26     170/  6/  7   N/A

$$

INZ004-005-014>016-021>024-150100-
NORTH CENTRAL INDIANA

CITY           SKY/WX    TMP DP  RH WIND       PRES   REMARKS
ELKHART        CLOUDY    21  12  68 CALM      30.06S
GOSHEN         CLOUDY    21  13  71 S5        30.06S WCI  15
6HR MIN TEMP:  19; 6HR MAX TEMP:  22;

LOGANSPORT +   CLOUDY    21  18  86 SE5       30.09R WCI  15
PERU/GRISSOM   CLOUDY    23  15  72 CALM      30.07R
6HR MIN TEMP:  23; 6HR MAX TEMP:  27;

ROCHESTER +    CLOUDY    27  18  69 S3        30.07F
SOUTH BEND     CLOUDY    20  12  71 S8        30.06S WCI  10
6HR MIN TEMP:  20; 6HR MAX TEMP:  22; 6HR PCP: TRACE;

WARSAW +       CLOUDY    23  12  63 CALM      30.07S

$$

INZ006>009-017-018-025>027-150100-
NORTHEAST INDIANA

CITY           SKY/WX    TMP DP  RH WIND       PRES   REMARKS
AUBURN +       CLOUDY    18  10  73 CALM      30.08S
FORT WAYNE     CLOUDY    18  11  74 CALM      30.08S
6HR MIN TEMP:  17; 6HR MAX TEMP:  24;

HUNTINGTON +   CLOUDY    22   9  58 CALM      30.08S
6HR MIN TEMP:  22; 6HR MAX TEMP:  25;

KENDALLVILLE + CLOUDY    18  12  77 CALM      30.06S

$$

INZ028-029-035-036-043>045-051>053-150100-
WEST CENTRAL INDIANA

CITY           SKY/WX    TMP DP  RH WIND       PRES   REMARKS
CRAWFORDSVL +  PTCLDY    23  13  65 MISG        N/A
6HR MIN TEMP:  22; 6HR MAX TEMP:  29;

GREENCASTLE +  CLOUDY    27  10  50 CALM      30.07S
LAFAYETTE      MOCLDY    27  15  61 NE3       30.08R
6HR MIN TEMP:  27; 6HR MAX TEMP:  31;

TERRE HAUTE    CLOUDY    29  16  58 CALM      30.08S
6HR MIN TEMP:  29; 6HR MAX TEMP:  34;


$$

INZ030>032-037>040-046>048-054>057-064-065-150100-
CENTRAL INDIANA

CITY           SKY/WX    TMP DP  RH WIND       PRES   REMARKS
COLUMBUS       CLEAR     25  14  63 CALM      30.10R
FRANKFORT +    CLOUDY    27  14  58 CALM      30.08S
6HR MIN TEMP:  27; 6HR MAX TEMP:  32;

INDIANAPOLIS   MOCLDY    27  10  49 S6        30.07S WCI  20
6HR MIN TEMP:  27; 6HR MAX TEMP:  30;

-EAGLE CREEK   MOCLDY    28  12  51 CALM      30.06S
6HR MIN TEMP:  28; 6HR MAX TEMP:  31;

KOKOMO +       CLOUDY    24  16  71 CALM      30.08S
6HR MIN TEMP:  24; 6HR MAX TEMP:  29;

MARION +       MOCLDY    24  14  66 CALM      30.08S HAZE
MT COMFORT *+  CLOUDY    23  16  74 CALM      30.07S
SHELBYVILLE    CLOUDY    25  14  63 S5        30.08R WCI  19
6HR MIN TEMP:  23; 6HR MAX TEMP:  30;

ZIONSVILLE +   PTCLDY    23  13  65 CALM      30.07S
6HR MIN TEMP:  22; 6HR MAX TEMP:  30;


$$

INZ033-034-041-042-049-050-058-059-150100-
EAST CENTRAL INDIANA

CITY           SKY/WX    TMP DP  RH WIND       PRES   REMARKS
MUNCIE         CLOUDY    25  12  58 CALM      30.07S
6HR MIN TEMP:  24; 6HR MAX TEMP:  30;

RICHMOND +     CLOUDY    19  18  93 CALM      30.07R

$$

INZ060-061-067>069-081>083-085>088-150100-
SOUTHWEST INDIANA

CITY           SKY/WX    TMP DP  RH WIND       PRES   REMARKS
EVANSVILLE     CLOUDY    32  21  64 CALM      30.10S
6HR MIN TEMP:  32; 6HR MAX TEMP:  34; 6HR PCP: TRACE;

HUNTINGBURG +  CLOUDY    31  24  75 CALM      30.08
6HR MIN TEMP:  31; 6HR MAX TEMP:  33;

WASHINGTON +   CLOUDY    31  20  65 CALM      30.09S
6HR MIN TEMP:  31; 6HR MAX TEMP:  33;


$$

INZ062-063-066-070>080-084-089>092-150100-
SOUTH CENTRAL AND SOUTHEAST INDIANA

CITY           SKY/WX    TMP DP  RH WIND       PRES   REMARKS
BLOOMINGTON    CLOUDY    29  14  53 N6        30.06S WCI  23
6HR MIN TEMP:  29; 6HR MAX TEMP:  33;

MADISON *+     CLOUDY    28  18  64 CALM      30.09R
NORTH VERNON + CLOUDY    25  16  68 N3        30.09R
SEYMOUR +      CLOUDY    28  16  59 NE6       30.09R WCI  22

$$





USA.gov is the U.S. government's official web portal to all federal, state and local government web resources and services.